Вернуться в каталог

FENGYUN 1C DEB

АктивенSSO
NORAD 31085·DEBRIS·🇨🇳 China

Запущен May 10, 1999 с Taiyuan Satellite Launch Center

Loading…

Ближайшие Пролёты (ближайшие 24 часа)

TLE

СвежийSource: Space-Track

Эпоха: Sep 14, 2026, 01:44 UTC

1 31085U 99025BGF 26257.07227388  .00000101  00000-0  55027-4 0  9996
2 31085  98.9592 111.5460 0085928 297.4220 216.0124 14.30450864 16522

Отслеживайте FENGYUN 1C DEB в реальном времени с AllMySat

Download on the App Store